START_TIME,STEP,MOV.,M34,t_acc.,L5,t_acc.,L18,t_acc.,L14,t_acc.
1979-08-03 03:00:23.470 ,0,0,1.,12.0,0.,12.0,0.,12.0,0.,12.0
1979-08-03 03:00:35.470 ,0,0,0.,12.0,0.,12.0,0.,12.0,0.,12.0
1979-08-03 03:00:49.870 ,0,0,,0,,0,,0,,0
1979-08-03 03:01:01.870 ,0,0,0.,12.0,0.,12.0,0.,12.0,0.,12.0
1979-08-03 03:01:11.470 ,0,0,,0,,0,,0,,0
1979-08-03 03:01:23.470 ,0,0,,0,,0,,0,,0
1979-08-03 03:01:35.470 ,3,0,,0,,0,,0,,0
1979-08-03 03:01:47.470 ,3,0,,0,,0,,0,,0
1979-08-03 03:01:59.470 ,0,0,0.,12.0,0.,12.0,0.,12.0,0.,12.0
1979-08-03 03:02:11.470 ,0,0,0.,12.0,0.,12.0,0.,12.0,0.,12.0
1979-08-03 03:02:24.070 ,0,0,0.,12.0,0.,12.0,0.,12.0,0.,12.0
1979-08-03 03:02:36.070 ,0,0,0.,12.0,0.,12.0,0.,12.0,0.,12.0
1979-08-03 03:02:47.470 ,0,0,,0,,0,,0,,0
1979-08-03 03:02:59.470 ,0,0,,0,,0,,0,,0
1979-08-03 03:03:32.470 ,0,0,,0,,0,,0,,0
1979-08-03 03:03:44.470 ,0,0,,0,,0,,0,,0
1979-08-03 03:03:35.470 ,0,0,,0,,0,,0,,0
1979-08-03 03:03:47.470 ,0,0,,0,,0,,0,,0
1979-08-03 03:03:35.470 ,0,0,,0,,0,,0,,0
1979-08-03 03:03:47.470 ,0,0,0.,12.0,0.,12.0,0.,12.0,0.,12.0
1979-08-03 03:04:00.070 ,6,1,0.,12.0,0.,12.0,0.,12.0,0.,12.0
1979-08-03 03:04:12.070 ,6,1,0.,12.0,0.,12.0,0.,12.0,0.,12.0
1979-08-03 03:04:23.470 ,6,0,0.,12.0,0.,12.0,0.,12.0,0.,12.0
1979-08-03 03:04:35.470 ,6,0,0.,12.0,0.,12.0,0.,12.0,0.,12.0
1979-08-03 03:04:47.470 ,7,1,0.,12.0,0.,12.0,0.,12.0,0.,12.0
1979-08-03 03:04:59.470 ,7,1,0.,12.0,0.,12.0,0.,12.0,0.,12.0
1979-08-03 03:05:11.470 ,7,0,,0,,0,,0,,0
1979-08-03 03:05:23.470 ,7,0,0.,12.0,0.,12.0,0.,12.0,0.,12.0
1979-08-03 03:05:35.470 ,0,0,0.,12.0,0.,12.0,0.,12.0,0.,12.0
1979-08-03 03:05:47.470 ,0,0,0.,12.0,0.,12.0,0.,12.0,0.,12.0
1979-08-03 03:05:59.470 ,0,0,0.,12.0,0.,12.0,0.,12.0,0.,12.0
1979-08-03 03:06:11.470 ,0,0,0.,12.0,0.,12.0,0.,12.0,0.,12.0
1979-08-03 03:06:23.470 ,6,1,0.,12.0,0.,12.0,0.,12.0,0.,12.0
1979-08-03 03:06:35.470 ,6,1,0.,12.0,0.,12.0,0.,12.0,0.,12.0
1979-08-03 03:06:47.470 ,0,0,0.,12.0,0.,12.0,0.,12.0,0.,12.0
1979-08-03 03:06:59.470 ,0,0,,0,,0,,0,,0
1979-08-03 03:07:11.470 ,5,1,0.,12.0,0.,12.0,0.,12.0,0.,12.0
1979-08-03 03:07:23.470 ,5,1,0.,12.0,0.,12.0,0.,12.0,0.,12.0
1979-08-03 03:07:35.470 ,5,0,0.,12.0,0.,12.0,0.,12.0,0.,12.0
1979-08-03 03:07:47.470 ,5,0,0.,12.0,0.,12.0,0.,12.0,0.,12.0
1979-08-03 03:07:59.470 ,4,1,,0,,0,,0,,0
1979-08-03 03:08:11.470 ,4,1,0.,12.0,0.,12.0,0.,12.0,0.,12.0
1979-08-03 03:08:23.470 ,0,0,0.,12.0,0.,12.0,0.,12.0,0.,12.0
1979-08-03 03:08:35.470 ,0,0,0.,12.0,0.,12.0,0.,12.0,0.,12.0
1979-08-03 03:08:47.470 ,3,1,0.,12.0,0.,12.0,0.,12.0,0.,12.0
1979-08-03 03:08:59.470 ,3,1,0.,12.0,0.,12.0,0.,12.0,0.,12.0
1979-08-03 03:09:11.470 ,0,0,0.,12.0,0.,12.0,0.,12.0,0.,12.0
1979-08-03 03:09:23.470 ,0,0,0.,12.0,0.,12.0,0.,12.0,0.,12.0
1979-08-03 03:09:35.470 ,2,1,0.,12.0,0.,12.0,0.,12.0,0.,12.0
1979-08-03 03:09:47.470 ,2,1,0.,12.0,0.,12.0,0.,12.0,0.,12.0
1979-08-03 03:09:59.470 ,2,0,0.,12.0,0.,12.0,0.,12.0,0.,12.0
1979-08-03 03:10:11.470 ,2,0,0.,12.0,0.,12.0,0.,12.0,0.,12.0
1979-08-03 03:10:23.470 ,0,0,0.,12.0,0.,12.0,0.,12.0,0.,12.0
1979-08-03 03:10:35.470 ,0,0,0.,12.0,0.,12.0,0.,12.0,0.,12.0
1979-08-03 03:10:47.470 ,0,0,0.,12.0,0.,12.0,0.,12.0,0.,12.0
1979-08-03 03:10:59.470 ,0,0,,0,,0,,0,,0
1979-08-03 03:11:11.470 ,0,1,0.,12.0,0.,12.0,0.,12.0,0.,12.0
1979-08-03 03:11:23.470 ,0,1,0.,12.0,0.,12.0,0.,12.0,0.,12.0
1979-08-03 03:11:35.470 ,0,1,0.,12.0,0.,12.0,0.,12.0,0.,12.0
1979-08-03 03:11:47.470 ,0,1,0.,12.0,0.,12.0,0.,12.0,0.,12.0
1979-08-03 03:11:59.470 ,0,0,0.,12.0,0.,12.0,0.,12.0,0.,12.0
1979-08-03 03:12:11.470 ,0,0,,0,,0,,0,,0
1979-08-03 03:12:23.470 ,0,0,0.,12.0,0.,12.0,0.,12.0,0.,12.0
1979-08-03 03:12:35.470 ,0,0,0.,12.0,0.,12.0,0.,12.0,0.,12.0
1979-08-03 03:12:47.470 ,1,1,0.,12.0,0.,12.0,0.,12.0,0.,12.0
1979-08-03 03:12:59.470 ,1,1,0.,12.0,0.,12.0,0.,12.0,0.,12.0
1979-08-03 03:13:11.470 ,0,0,,0,,0,,0,,0
1979-08-03 03:13:23.470 ,0,0,,0,,0,,0,,0
1979-08-03 03:13:35.470 ,0,0,0.,12.0,0.,12.0,0.,12.0,0.,12.0
1979-08-03 03:13:47.470 ,0,0,0.,12.0,0.,12.0,0.,12.0,0.,12.0
1979-08-03 03:13:59.470 ,0,0,0.,12.0,0.,12.0,0.,12.0,0.,12.0
1979-08-03 03:14:11.470 ,0,0,1.,12.0,0.,12.0,0.,12.0,0.,12.0
1979-08-03 03:14:23.470 ,3,1,0.,12.0,0.,12.0,0.,12.0,0.,12.0
1979-08-03 03:14:35.470 ,3,1,0.,12.0,0.,12.0,0.,12.0,0.,12.0
1979-08-03 03:14:47.470 ,3,0,0.,12.0,0.,12.0,0.,12.0,0.,12.0
1979-08-03 03:14:59.470 ,3,0,,0,,0,,0,,0
1979-08-03 03:15:11.470 ,0,0,0.,12.0,0.,12.0,0.,12.0,0.,12.0
1979-08-03 03:15:23.470 ,0,0,0.,12.0,0.,12.0,0.,12.0,0.,12.0
1979-08-03 03:15:35.470 ,0,0,0.,12.0,0.,12.0,0.,12.0,0.,12.0
1979-08-03 03:15:47.470 ,0,0,0.,12.0,0.,12.0,0.,12.0,0.,12.0
1979-08-03 03:15:59.470 ,5,1,0.,12.0,0.,12.0,0.,12.0,0.,12.0
1979-08-03 03:16:11.470 ,5,1,0.,12.0,0.,12.0,0.,12.0,0.,12.0
1979-08-03 03:16:23.470 ,0,0,0.,12.0,0.,12.0,0.,12.0,0.,12.0
1979-08-03 03:16:35.470 ,0,0,0.,12.0,0.,12.0,0.,12.0,0.,12.0
1979-08-03 03:16:47.470 ,0,0,0.,12.0,0.,12.0,0.,12.0,0.,12.0
1979-08-03 03:16:59.470 ,0,0,0.,12.0,0.,12.0,0.,12.0,0.,12.0
1979-08-03 03:17:11.470 ,0,0,,0,,0,,0,,0
1979-08-03 03:17:23.470 ,0,0,,0,,0,,0,,0
1979-08-03 03:17:35.470 ,7,1,0.,12.0,0.,12.0,0.,12.0,0.,12.0
1979-08-03 03:17:47.470 ,7,1,0.,12.0,0.,12.0,0.,12.0,0.,12.0
1979-08-03 03:17:59.470 ,0,0,0.,12.0,0.,12.0,0.,12.0,0.,12.0
1979-08-03 03:18:11.470 ,0,0,0.,12.0,0.,12.0,0.,12.0,0.,12.0
1979-08-03 03:18:23.470 ,0,0,0.,12.0,0.,12.0,0.,12.0,0.,12.0
1979-08-03 03:18:35.470 ,0,0,0.,12.0,0.,12.0,0.,12.0,0.,12.0
1979-08-03 03:18:47.470 ,0,0,0.,12.0,0.,12.0,0.,12.0,0.,12.0
1979-08-03 03:18:59.470 ,0,0,0.,12.0,0.,12.0,0.,12.0,0.,12.0
1979-08-03 03:19:11.470 ,0,0,0.,12.0,0.,12.0,0.,12.0,0.,12.0
1979-08-03 03:19:23.470 ,0,0,0.,12.0,0.,12.0,0.,12.0,0.,12.0
1979-08-03 03:19:35.470 ,0,0,0.,12.0,0.,12.0,0.,12.0,0.,12.0
1979-08-03 03:19:47.470 ,0,0,,0,,0,,0,,0
1979-08-03 03:19:59.470 ,5,1,0.,12.0,0.,12.0,0.,12.0,0.,12.0
1979-08-03 03:20:11.470 ,5,1,0.,12.0,0.,12.0,0.,12.0,0.,12.0
1979-08-03 03:20:23.470 ,7,1,0.,12.0,0.,12.0,0.,12.0,0.,12.0
1979-08-03 03:20:35.470 ,7,1,0.,12.0,0.,12.0,0.,12.0,0.,12.0
1979-08-03 03:20:48.670 ,4,1,0.,12.0,0.,12.0,0.,12.0,0.,12.0
1979-08-03 03:21:00.670 ,4,1,0.,12.0,0.,12.0,0.,12.0,0.,12.0
1979-08-03 03:21:11.470 ,4,0,0.,12.0,0.,12.0,0.,12.0,0.,12.0
1979-08-03 03:21:23.470 ,4,0,0.,12.0,0.,12.0,0.,12.0,0.,12.0
1979-08-03 03:21:35.470 ,3,1,0.,12.0,0.,12.0,0.,12.0,0.,12.0
1979-08-03 03:21:47.470 ,3,1,0.,12.0,0.,12.0,0.,12.0,0.,12.0
1979-08-03 03:21:59.470 ,3,0,0.,12.0,0.,12.0,0.,12.0,0.,12.0
1979-08-03 03:22:11.470 ,3,0,0.,12.0,0.,12.0,0.,12.0,0.,12.0
1979-08-03 03:22:23.470 ,3,0,0.,12.0,0.,12.0,0.,12.0,0.,12.0
1979-08-03 03:22:35.470 ,3,0,,0,,0,,0,,0
1979-08-03 03:22:47.470 ,0,0,0.,12.0,0.,12.0,0.,12.0,0.,12.0
1979-08-03 03:22:59.470 ,0,0,0.,12.0,0.,12.0,0.,12.0,0.,12.0
1979-08-03 03:23:12.670 ,0,0,0.,12.0,0.,12.0,0.,12.0,0.,12.0
1979-08-03 03:23:24.670 ,0,0,0.,12.0,0.,12.0,0.,12.0,0.,12.0
1979-08-03 03:23:35.470 ,0,0,,0,,0,,0,,0
1979-08-03 03:23:47.470 ,0,0,,0,,0,,0,,0
1979-08-03 03:23:59.470 ,0,0,,0,,0,,0,,0
1979-08-03 03:24:11.470 ,0,0,0.,12.0,0.,12.0,0.,12.0,0.,12.0
1979-08-03 03:24:23.470 ,0,0,0.,12.0,0.,12.0,0.,12.0,0.,12.0
1979-08-03 03:24:35.470 ,0,0,0.,12.0,0.,12.0,0.,12.0,0.,12.0
1979-08-03 03:24:47.470 ,0,1,,0,,0,,0,,0
1979-08-03 03:24:59.470 ,0,1,0.,12.0,0.,12.0,0.,12.0,0.,12.0
1979-08-03 03:25:11.470 ,0,0,0.,12.0,0.,12.0,0.,12.0,0.,12.0
1979-08-03 03:25:23.470 ,0,0,0.,12.0,0.,12.0,0.,12.0,0.,12.0
1979-08-03 03:25:36.670 ,1,1,0.,12.0,0.,12.0,0.,12.0,0.,12.0
1979-08-03 03:25:48.670 ,1,1,0.,12.0,0.,12.0,0.,12.0,0.,12.0
1979-08-03 03:25:59.470 ,1,0,0.,12.0,0.,12.0,0.,12.0,0.,12.0
1979-08-03 03:26:11.470 ,1,0,0.,12.0,0.,12.0,0.,12.0,0.,12.0
1979-08-03 03:26:23.470 ,1,0,0.,12.0,0.,12.0,0.,12.0,0.,12.0
1979-08-03 03:26:35.470 ,1,0,,0,,0,,0,,0
1979-08-03 03:26:47.470 ,2,0,0.,12.0,0.,12.0,0.,12.0,0.,12.0
1979-08-03 03:26:59.470 ,2,0,0.,12.0,0.,12.0,0.,12.0,0.,12.0
1979-08-03 03:27:11.470 ,3,1,0.,12.0,0.,12.0,0.,12.0,0.,12.0
1979-08-03 03:27:23.470 ,3,1,0.,12.0,0.,12.0,0.,12.0,0.,12.0
1979-08-03 03:27:35.470 ,3,0,0.,12.0,0.,12.0,0.,12.0,0.,12.0
1979-08-03 03:27:47.470 ,3,0,0.,12.0,0.,12.0,0.,12.0,0.,12.0
1979-08-03 03:27:59.470 ,0,0,0.,12.0,0.,12.0,0.,12.0,0.,12.0
1979-08-03 03:28:11.470 ,0,0,,0,,0,,0,,0
1979-08-03 03:28:23.470 ,0,0,0.,12.0,0.,12.0,0.,12.0,0.,12.0
1979-08-03 03:28:35.470 ,0,0,0.,12.0,0.,12.0,0.,12.0,0.,12.0
1979-08-03 03:28:47.470 ,5,1,0.,12.0,0.,12.0,0.,12.0,0.,12.0
1979-08-03 03:28:59.470 ,5,1,0.,12.0,0.,12.0,0.,12.0,0.,12.0
1979-08-03 03:29:11.470 ,5,0,,0,,0,,0,,0
1979-08-03 03:29:23.470 ,5,0,0.,12.0,0.,12.0,0.,12.0,0.,12.0
1979-08-03 03:29:35.470 ,6,1,0.,12.0,0.,12.0,0.,12.0,0.,12.0
1979-08-03 03:29:47.470 ,6,1,0.,12.0,0.,12.0,0.,12.0,0.,12.0
1979-08-03 03:29:59.470 ,6,0,0.,12.0,0.,12.0,0.,12.0,0.,12.0
1979-08-03 03:30:11.470 ,6,0,0.,12.0,0.,12.0,0.,12.0,0.,12.0
1979-08-03 03:30:23.470 ,0,0,0.,12.0,0.,12.0,0.,12.0,0.,12.0
1979-08-03 03:30:35.470 ,0,0,,0,,0,,0,,0
1979-08-03 03:30:47.470 ,7,0,0.,12.0,0.,12.0,0.,12.0,0.,12.0
1979-08-03 03:30:59.470 ,7,0,0.,12.0,0.,12.0,0.,12.0,0.,12.0
1979-08-03 03:31:11.470 ,4,1,0.,12.0,0.,12.0,0.,12.0,0.,12.0
1979-08-03 03:31:23.470 ,4,1,0.,12.0,0.,12.0,0.,12.0,0.,12.0
1979-08-03 03:31:35.470 ,0,1,0.,12.0,0.,12.0,0.,12.0,0.,12.0
1979-08-03 03:31:47.470 ,0,1,0.,12.0,0.,12.0,0.,12.0,0.,12.0
1979-08-03 03:31:59.470 ,3,1,0.,12.0,0.,12.0,0.,12.0,0.,12.0
1979-08-03 03:32:11.470 ,3,1,0.,12.0,0.,12.0,0.,12.0,0.,12.0
1979-08-03 03:32:23.470 ,7,1,0.,12.0,0.,12.0,0.,12.0,0.,12.0
1979-08-03 03:32:35.470 ,7,1,0.,12.0,0.,12.0,0.,12.0,0.,12.0
1979-08-03 03:32:47.470 ,4,1,0.,12.0,0.,12.0,0.,12.0,0.,12.0
1979-08-03 03:32:59.470 ,4,1,0.,12.0,0.,12.0,0.,12.0,0.,12.0
1979-08-03 03:33:11.470 ,0,1,0.,12.0,0.,12.0,0.,12.0,0.,12.0
1979-08-03 03:33:23.470 ,0,1,0.,12.0,0.,12.0,0.,12.0,0.,12.0
1979-08-03 03:33:35.470 ,3,1,0.,12.0,0.,12.0,0.,12.0,0.,12.0
1979-08-03 03:33:47.470 ,3,1,0.,12.0,0.,12.0,0.,12.0,0.,12.0
1979-08-03 03:33:59.470 ,0,0,0.,12.0,0.,12.0,0.,12.0,0.,12.0
1979-08-03 03:34:11.470 ,0,0,0.,12.0,0.,12.0,0.,12.0,0.,12.0
1979-08-03 03:34:23.470 ,4,1,0.,12.0,0.,12.0,0.,12.0,0.,12.0
1979-08-03 03:34:35.470 ,4,1,0.,12.0,0.,12.0,0.,12.0,0.,12.0
1979-08-03 03:34:47.470 ,0,1,0.,12.0,0.,12.0,0.,12.0,0.,12.0
1979-08-03 03:34:59.470 ,0,1,0.,12.0,0.,12.0,0.,12.0,0.,12.0
1979-08-03 03:35:11.470 ,3,1,0.,12.0,0.,12.0,0.,12.0,0.,12.0
1979-08-03 03:35:23.470 ,3,1,0.,12.0,0.,12.0,0.,12.0,0.,12.0
1979-08-03 03:35:35.470 ,7,1,0.,12.0,0.,12.0,0.,12.0,0.,12.0
1979-08-03 03:35:47.470 ,7,1,0.,12.0,0.,12.0,0.,12.0,0.,12.0
1979-08-03 03:35:59.470 ,4,1,0.,12.0,0.,12.0,0.,12.0,0.,12.0
1979-08-03 03:36:11.470 ,4,1,0.,12.0,0.,12.0,0.,12.0,0.,12.0
1979-08-03 03:36:23.470 ,0,1,0.,12.0,0.,12.0,0.,12.0,0.,12.0
1979-08-03 03:36:35.470 ,0,1,0.,12.0,0.,12.0,0.,12.0,0.,12.0
1979-08-03 03:36:47.470 ,3,1,,0,,0,,0,,0
1979-08-03 03:36:59.470 ,3,1,0.,12.0,0.,12.0,0.,12.0,0.,12.0
1979-08-03 03:37:11.470 ,5,1,0.,12.0,0.,12.0,0.,12.0,0.,12.0
1979-08-03 03:37:23.470 ,5,1,,0,,0,,0,,0
1979-08-03 03:37:35.470 ,0,0,0.,12.0,0.,12.0,0.,12.0,0.,12.0
1979-08-03 03:37:47.470 ,0,0,0.,12.0,0.,12.0,0.,12.0,0.,12.0
1979-08-03 03:37:59.470 ,0,0,0.,12.0,0.,12.0,0.,12.0,0.,12.0
1979-08-03 03:38:11.470 ,0,0,0.,12.0,0.,12.0,0.,12.0,0.,12.0
1979-08-03 03:38:24.070 ,0,0,0.,12.0,0.,12.0,0.,12.0,0.,12.0
1979-08-03 03:38:36.070 ,0,0,0.,12.0,0.,12.0,0.,12.0,0.,12.0
1979-08-03 03:38:47.470 ,7,1,0.,12.0,0.,12.0,0.,12.0,0.,12.0
1979-08-03 03:38:59.470 ,7,1,0.,12.0,0.,12.0,0.,12.0,0.,12.0
1979-08-03 03:39:11.470 ,4,1,,0,,0,,0,,0
1979-08-03 03:39:23.470 ,4,1,0.,12.0,0.,12.0,0.,12.0,0.,12.0
1979-08-03 03:39:35.470 ,0,1,0.,12.0,0.,12.0,0.,12.0,0.,12.0
1979-08-03 03:39:47.470 ,0,1,0.,12.0,0.,12.0,0.,12.0,0.,12.0
1979-08-03 03:39:59.470 ,0,0,,0,,0,,0,,0
1979-08-03 03:40:11.470 ,0,0,,0,,0,,0,,0
1979-08-03 03:40:23.470 ,0,0,0.,12.0,0.,12.0,0.,12.0,0.,12.0
1979-08-03 03:40:35.470 ,0,0,0.,12.0,0.,12.0,0.,12.0,0.,12.0
1979-08-03 03:40:47.470 ,4,1,0.,12.0,0.,12.0,0.,12.0,0.,12.0
1979-08-03 03:40:59.470 ,4,1,0.,12.0,0.,12.0,0.,12.0,0.,12.0
1979-08-03 03:41:11.470 ,0,0,0.,12.0,0.,12.0,0.,12.0,0.,12.0
1979-08-03 03:41:23.470 ,0,0,0.,12.0,0.,12.0,0.,12.0,0.,12.0
1979-08-03 03:41:35.470 ,0,0,0.,12.0,0.,12.0,0.,12.0,0.,12.0
1979-08-03 03:41:47.470 ,0,0,0.,12.0,0.,12.0,0.,12.0,0.,12.0
1979-08-03 03:41:59.470 ,0,0,0.,12.0,0.,12.0,0.,12.0,0.,12.0
1979-08-03 03:42:11.470 ,0,0,0.,12.0,0.,12.0,0.,12.0,0.,12.0
1979-08-03 03:42:23.470 ,6,0,0.,12.0,0.,12.0,0.,12.0,0.,12.0
1979-08-03 03:42:35.470 ,6,0,,0,,0,,0,,0
1979-08-03 03:42:47.470 ,5,0,,0,,0,,0,,0
1979-08-03 03:42:59.470 ,5,0,0.,12.0,0.,12.0,0.,12.0,0.,12.0
1979-08-03 03:43:11.470 ,4,1,0.,12.0,0.,12.0,0.,12.0,0.,12.0
1979-08-03 03:43:23.470 ,4,1,0.,12.0,0.,12.0,0.,12.0,0.,12.0
1979-08-03 03:43:35.470 ,4,0,0.,12.0,0.,12.0,0.,12.0,0.,12.0
1979-08-03 03:43:47.470 ,4,0,0.,12.0,0.,12.0,0.,12.0,0.,12.0
1979-08-03 03:43:59.470 ,0,0,,0,,0,,0,,0
1979-08-03 03:44:11.470 ,0,0,0.,12.0,0.,12.0,0.,12.0,0.,12.0
1979-08-03 03:44:23.470 ,0,0,0.,12.0,0.,12.0,0.,12.0,0.,12.0
1979-08-03 03:44:35.470 ,0,0,0.,12.0,0.,12.0,0.,12.0,0.,12.0
1979-08-03 03:44:47.470 ,2,1,0.,12.0,0.,12.0,0.,12.0,0.,12.0
1979-08-03 03:44:59.470 ,2,1,0.,12.0,0.,12.0,0.,12.0,0.,12.0
1979-08-03 03:45:11.470 ,0,0,,0,,0,,0,,0
1979-08-03 03:45:23.470 ,0,0,0.,12.0,0.,12.0,0.,12.0,0.,12.0
1979-08-03 03:45:37.870 ,1,1,,0,,0,,0,,0
1979-08-03 03:45:49.870 ,1,1,0.,12.0,0.,12.0,0.,12.0,0.,12.0
1979-08-03 03:45:59.470 ,1,0,0.,12.0,0.,12.0,0.,12.0,0.,12.0
1979-08-03 03:46:11.470 ,1,0,0.,12.0,0.,12.0,0.,12.0,0.,12.0
1979-08-03 03:46:23.470 ,0,1,0.,12.0,0.,12.0,0.,12.0,0.,12.0
1979-08-03 03:46:35.470 ,0,1,0.,12.0,0.,12.0,0.,12.0,0.,12.0
1979-08-03 03:46:47.470 ,0,0,0.,12.0,0.,12.0,0.,12.0,0.,12.0
1979-08-03 03:46:59.470 ,0,0,0.,12.0,0.,12.0,0.,12.0,0.,12.0
1979-08-03 03:47:11.470 ,0,0,0.,12.0,0.,12.0,0.,12.0,0.,12.0
1979-08-03 03:47:23.470 ,0,0,,0,,0,,0,,0
1979-08-03 03:47:35.470 ,0,0,1.,12.0,0.,12.0,0.,12.0,0.,12.0
1979-08-03 03:47:47.470 ,0,0,0.,12.0,0.,12.0,0.,12.0,0.,12.0
1979-08-03 03:47:59.470 ,1,1,0.,12.0,0.,12.0,0.,12.0,0.,12.0
1979-08-03 03:48:11.470 ,1,1,0.,12.0,0.,12.0,0.,12.0,0.,12.0
1979-08-03 03:48:23.470 ,1,0,0.,12.0,0.,12.0,0.,12.0,0.,12.0
1979-08-03 03:48:35.470 ,1,0,0.,12.0,0.,12.0,0.,12.0,0.,12.0
1979-08-03 03:48:47.470 ,2,1,0.,12.0,0.,12.0,0.,12.0,0.,12.0
1979-08-03 03:48:59.470 ,2,1,0.,12.0,0.,12.0,0.,12.0,0.,12.0
1979-08-03 03:49:11.470 ,0,0,0.,12.0,0.,12.0,0.,12.0,0.,12.0
1979-08-03 03:49:23.470 ,0,0,0.,12.0,0.,12.0,0.,12.0,0.,12.0
1979-08-03 03:50:11.470 ,0,0,,0,,0,,0,,0
1979-08-03 03:50:23.470 ,0,0,0.,12.0,0.,12.0,0.,12.0,0.,12.0
1979-08-03 03:50:23.470 ,4,1,0.,12.0,0.,12.0,0.,12.0,0.,12.0
1979-08-03 03:50:35.470 ,4,1,0.,12.0,0.,12.0,0.,12.0,0.,12.0
1979-08-03 03:50:47.470 ,4,0,0.,12.0,0.,12.0,0.,12.0,0.,12.0
1979-08-03 03:50:59.470 ,4,0,0.,12.0,0.,12.0,0.,12.0,0.,12.0
1979-08-03 03:51:13.870 ,0,0,,0,,0,,0,,0
1979-08-03 03:51:25.870 ,0,0,0.,12.0,0.,12.0,0.,12.0,0.,12.0
1979-08-03 03:51:35.470 ,0,0,,0,,0,,0,,0
1979-08-03 03:51:47.470 ,0,0,0.,12.0,0.,12.0,0.,12.0,0.,12.0
1979-08-03 03:51:59.470 ,6,1,0.,12.0,0.,12.0,0.,12.0,0.,12.0
1979-08-03 03:52:11.470 ,6,1,0.,12.0,0.,12.0,0.,12.0,0.,12.0
1979-08-03 03:52:23.470 ,6,0,0.,12.0,0.,12.0,0.,12.0,0.,12.0
1979-08-03 03:52:35.470 ,6,0,0.,12.0,0.,12.0,0.,12.0,0.,12.0
1979-08-03 03:52:47.470 ,7,1,0.,12.0,0.,12.0,0.,12.0,0.,12.0
1979-08-03 03:52:59.470 ,7,1,0.,12.0,0.,12.0,0.,12.0,0.,12.0
1979-08-03 03:53:11.470 ,7,0,0.,12.0,0.,12.0,0.,12.0,0.,12.0
1979-08-03 03:53:23.470 ,7,0,0.,12.0,0.,12.0,0.,12.0,0.,12.0
1979-08-03 03:53:35.470 ,7,1,0.,12.0,0.,12.0,0.,12.0,0.,12.0
1979-08-03 03:53:47.470 ,7,1,0.,12.0,0.,12.0,0.,12.0,0.,12.0
1979-08-03 03:53:59.470 ,7,0,,0,,0,,0,,0
1979-08-03 03:54:11.470 ,7,0,0.,12.0,0.,12.0,0.,12.0,0.,12.0
1979-08-03 03:54:23.470 ,6,1,0.,12.0,0.,12.0,0.,12.0,0.,12.0
1979-08-03 03:54:35.470 ,6,1,0.,12.0,0.,12.0,0.,12.0,0.,12.0
1979-08-03 03:54:47.470 ,6,0,0.,12.0,0.,12.0,0.,12.0,0.,12.0
1979-08-03 03:54:59.470 ,6,0,0.,12.0,0.,12.0,0.,12.0,0.,12.0
1979-08-03 03:55:11.470 ,5,1,0.,12.0,0.,12.0,0.,12.0,0.,12.0
1979-08-03 03:55:23.470 ,5,1,0.,12.0,0.,12.0,0.,12.0,0.,12.0
1979-08-03 03:55:35.470 ,5,0,0.,12.0,0.,12.0,0.,12.0,0.,12.0
1979-08-03 03:55:47.470 ,5,0,0.,12.0,0.,12.0,0.,12.0,0.,12.0
1979-08-03 03:55:59.470 ,4,1,,0,,0,,0,,0
1979-08-03 03:56:11.470 ,4,1,0.,12.0,0.,12.0,0.,12.0,0.,12.0
1979-08-03 03:56:23.470 ,0,0,0.,12.0,0.,12.0,0.,12.0,0.,12.0
1979-08-03 03:56:35.470 ,0,0,,0,,0,,0,,0
1979-08-03 03:56:47.470 ,3,1,,0,,0,,0,,0
1979-08-03 03:56:59.470 ,3,1,0.,12.0,0.,12.0,0.,12.0,0.,12.0
1979-08-03 03:57:11.470 ,3,0,0.,12.0,0.,12.0,0.,12.0,0.,12.0
1979-08-03 03:57:23.470 ,3,0,0.,12.0,0.,12.0,0.,12.0,0.,12.0
1979-08-03 03:57:35.470 ,2,1,,0,,0,,0,,0
1979-08-03 03:57:47.470 ,2,1,0.,12.0,0.,12.0,0.,12.0,0.,12.0
1979-08-03 03:57:59.470 ,2,0,0.,12.0,0.,12.0,0.,12.0,0.,12.0
1979-08-03 03:58:11.470 ,2,0,1.,12.0,0.,12.0,0.,12.0,0.,12.0
1979-08-03 03:58:23.470 ,1,1,0.,12.0,0.,12.0,0.,12.0,0.,12.0
1979-08-03 03:58:35.470 ,1,1,0.,12.0,0.,12.0,0.,12.0,0.,12.0
1979-08-03 03:58:47.470 ,1,0,,0,,0,,0,,0
1979-08-03 03:58:59.470 ,1,0,0.,12.0,0.,12.0,0.,12.0,0.,12.0
1979-08-03 03:59:11.470 ,0,1,0.,12.0,0.,12.0,0.,12.0,0.,12.0
1979-08-03 03:59:23.470 ,0,1,0.,12.0,0.,12.0,0.,12.0,0.,12.0
1979-08-03 03:59:35.470 ,0,0,0.,12.0,0.,12.0,0.,12.0,0.,12.0
1979-08-03 03:59:47.470 ,0,0,0.,12.0,0.,12.0,0.,12.0,0.,12.0
1979-08-03 04:00:00.070 ,0,1,,0,,0,,0,,0
1979-08-03 04:00:12.070 ,0,1,0.,12.0,0.,12.0,0.,12.0,0.,12.0
1979-08-03 04:00:23.470 ,0,0,1.,12.0,0.,12.0,0.,12.0,0.,12.0
1979-08-03 04:00:35.470 ,0,0,0.,12.0,0.,12.0,0.,12.0,0.,12.0
1979-08-03 04:00:47.470 ,0,0,0.,12.0,0.,12.0,0.,12.0,0.,12.0
1979-08-03 04:00:59.470 ,0,0,,0,,0,,0,,0
1979-08-03 04:01:11.470 ,1,0,0.,12.0,0.,12.0,0.,12.0,0.,12.0
1979-08-03 04:01:23.470 ,1,0,0.,12.0,0.,12.0,0.,12.0,0.,12.0
1979-08-03 04:01:35.470 ,0,0,,0,,0,,0,,0
1979-08-03 04:01:47.470 ,0,0,0.,12.0,0.,12.0,0.,12.0,0.,12.0
1979-08-03 04:01:59.470 ,0,0,,0,,0,,0,,0
1979-08-03 04:02:11.470 ,0,0,0.,12.0,0.,12.0,0.,12.0,0.,12.0
1979-08-03 04:02:23.470 ,0,0,0.,12.0,0.,12.0,0.,12.0,0.,12.0
1979-08-03 04:02:35.470 ,0,0,0.,12.0,0.,12.0,0.,12.0,0.,12.0
1979-08-03 04:02:47.470 ,0,0,0.,12.0,0.,12.0,0.,12.0,0.,12.0
1979-08-03 04:02:59.470 ,0,0,0.,12.0,0.,12.0,0.,12.0,0.,12.0
1979-08-03 04:03:11.470 ,3,0,0.,12.0,0.,12.0,0.,12.0,0.,12.0
1979-08-03 04:03:23.470 ,3,0,,0,,0,,0,,0
1979-08-03 04:03:35.470 ,0,0,0.,12.0,0.,12.0,0.,12.0,0.,12.0
1979-08-03 04:03:47.470 ,0,0,0.,12.0,0.,12.0,0.,12.0,0.,12.0
1979-08-03 04:03:59.470 ,5,1,,0,,0,,0,,0
1979-08-03 04:04:11.470 ,5,1,0.,12.0,0.,12.0,0.,12.0,0.,12.0
1979-08-03 04:04:23.470 ,5,0,0.,12.0,0.,12.0,0.,12.0,0.,12.0
1979-08-03 04:04:35.470 ,5,0,0.,12.0,0.,12.0,0.,12.0,0.,12.0
1979-08-03 04:04:47.470 ,6,1,0.,12.0,0.,12.0,0.,12.0,0.,12.0
1979-08-03 04:04:59.470 ,6,1,0.,12.0,0.,12.0,0.,12.0,0.,12.0
1979-08-03 04:05:11.470 ,0,0,0.,12.0,0.,12.0,0.,12.0,0.,12.0
1979-08-03 04:05:23.470 ,0,0,0.,12.0,0.,12.0,0.,12.0,0.,12.0
1979-08-03 04:05:35.470 ,7,1,0.,12.0,0.,12.0,0.,12.0,0.,12.0
1979-08-03 04:05:47.470 ,7,1,0.,12.0,0.,12.0,0.,12.0,0.,12.0
1979-08-03 04:05:59.470 ,7,0,0.,12.0,0.,12.0,0.,12.0,0.,12.0
1979-08-03 04:06:11.470 ,7,0,0.,12.0,0.,12.0,0.,12.0,0.,12.0
1979-08-03 04:06:23.470 ,0,0,0.,12.0,0.,12.0,0.,12.0,0.,12.0
1979-08-03 04:06:35.470 ,0,0,0.,12.0,0.,12.0,0.,12.0,0.,12.0
1979-08-03 04:06:47.470 ,0,0,0.,12.0,0.,12.0,0.,12.0,0.,12.0
1979-08-03 04:06:59.470 ,0,0,,0,,0,,0,,0
1979-08-03 04:07:11.470 ,6,1,,0,,0,,0,,0
1979-08-03 04:07:23.470 ,6,1,0.,12.0,0.,12.0,0.,12.0,0.,12.0
1979-08-03 04:07:35.470 ,6,0,0.,12.0,0.,12.0,0.,12.0,0.,12.0
1979-08-03 04:07:47.470 ,6,0,0.,12.0,0.,12.0,0.,12.0,0.,12.0
1979-08-03 04:07:59.470 ,5,1,0.,12.0,0.,12.0,0.,12.0,0.,12.0
1979-08-03 04:08:11.470 ,5,1,0.,12.0,0.,12.0,0.,12.0,0.,12.0
1979-08-03 04:08:23.470 ,5,0,0.,12.0,0.,12.0,0.,12.0,0.,12.0
1979-08-03 04:08:35.470 ,5,0,,0,,0,,0,,0
1979-08-03 04:08:47.470 ,4,1,0.,12.0,0.,12.0,0.,12.0,0.,12.0
1979-08-03 04:08:59.470 ,4,1,0.,12.0,0.,12.0,0.,12.0,0.,12.0
1979-08-03 04:09:11.470 ,4,0,0.,12.0,0.,12.0,0.,12.0,0.,12.0
1979-08-03 04:09:23.470 ,4,0,0.,12.0,0.,12.0,0.,12.0,0.,12.0
1979-08-03 04:09:35.470 ,3,1,0.,12.0,0.,12.0,0.,12.0,0.,12.0
1979-08-03 04:09:47.470 ,3,1,0.,12.0,0.,12.0,0.,12.0,0.,12.0
1979-08-03 04:09:59.470 ,3,0,0.,12.0,0.,12.0,0.,12.0,0.,12.0
1979-08-03 04:10:11.470 ,3,0,0.,12.0,0.,12.0,0.,12.0,0.,12.0
1979-08-03 04:10:23.470 ,0,0,,0,,0,,0,,0
1979-08-03 04:10:35.470 ,0,0,,0,,0,,0,,0
1979-08-03 04:10:47.470 ,2,1,0.,12.0,0.,12.0,0.,12.0,0.,12.0
1979-08-03 04:10:59.470 ,2,1,0.,12.0,0.,12.0,0.,12.0,0.,12.0
1979-08-03 04:11:11.470 ,1,1,,0,,0,,0,,0
1979-08-03 04:11:23.470 ,1,1,0.,12.0,0.,12.0,0.,12.0,0.,12.0
1979-08-03 04:11:35.470 ,0,0,,0,,0,,0,,0
1979-08-03 04:11:47.470 ,0,0,0.,12.0,0.,12.0,0.,12.0,0.,12.0
1979-08-03 04:11:59.470 ,0,1,0.,12.0,0.,12.0,0.,12.0,0.,12.0
1979-08-03 04:12:11.470 ,0,1,0.,12.0,0.,12.0,0.,12.0,0.,12.0
1979-08-03 04:12:23.470 ,0,0,0.,12.0,0.,12.0,0.,12.0,0.,12.0
1979-08-03 04:12:35.470 ,0,0,0.,12.0,0.,12.0,0.,12.0,0.,12.0
1979-08-03 04:12:47.470 ,0,0,0.,12.0,0.,12.0,0.,12.0,0.,12.0
1979-08-03 04:12:59.470 ,0,0,,0,,0,,0,,0
1979-08-03 04:13:11.470 ,0,0,0.,12.0,0.,12.0,0.,12.0,0.,12.0
1979-08-03 04:13:23.470 ,0,0,0.,12.0,0.,12.0,0.,12.0,0.,12.0
1979-08-03 04:13:35.470 ,1,1,0.,12.0,0.,12.0,0.,12.0,0.,12.0
1979-08-03 04:13:47.470 ,1,1,0.,12.0,0.,12.0,0.,12.0,0.,12.0
1979-08-03 04:13:59.470 ,1,0,0.,12.0,0.,12.0,0.,12.0,0.,12.0
1979-08-03 04:14:11.470 ,1,0,0.,12.0,0.,12.0,0.,12.0,0.,12.0
1979-08-03 04:14:23.470 ,2,1,0.,12.0,0.,12.0,0.,12.0,0.,12.0
1979-08-03 04:14:35.470 ,2,1,0.,12.0,0.,12.0,0.,12.0,0.,12.0
1979-08-03 04:14:47.470 ,2,0,0.,12.0,0.,12.0,0.,12.0,0.,12.0
1979-08-03 04:14:59.470 ,2,0,0.,12.0,0.,12.0,0.,12.0,0.,12.0
1979-08-03 04:15:11.470 ,3,1,0.,12.0,0.,12.0,0.,12.0,0.,12.0
1979-08-03 04:15:23.470 ,3,1,0.,12.0,0.,12.0,0.,12.0,0.,12.0
1979-08-03 04:15:35.470 ,3,0,0.,12.0,0.,12.0,0.,12.0,0.,12.0
1979-08-03 04:15:47.470 ,3,0,1.,12.0,0.,12.0,0.,12.0,0.,12.0
1979-08-03 04:15:59.470 ,4,1,0.,12.0,0.,12.0,0.,12.0,0.,12.0
1979-08-03 04:16:11.470 ,4,1,0.,12.0,0.,12.0,0.,12.0,0.,12.0
1979-08-03 04:16:23.470 ,4,0,0.,12.0,0.,12.0,0.,12.0,0.,12.0
1979-08-03 04:16:35.470 ,4,0,0.,12.0,0.,12.0,0.,12.0,0.,12.0
1979-08-03 04:16:47.470 ,5,1,0.,12.0,0.,12.0,0.,12.0,0.,12.0
1979-08-03 04:16:59.470 ,5,1,0.,12.0,0.,12.0,0.,12.0,0.,12.0
1979-08-03 04:17:11.470 ,0,0,0.,12.0,0.,12.0,0.,12.0,0.,12.0
1979-08-03 04:17:23.470 ,0,0,0.,12.0,0.,12.0,0.,12.0,0.,12.0
1979-08-03 04:17:35.470 ,6,1,0.,12.0,0.,12.0,0.,12.0,0.,12.0
1979-08-03 04:17:47.470 ,6,1,0.,12.0,0.,12.0,0.,12.0,0.,12.0
1979-08-03 04:17:59.470 ,6,0,0.,12.0,0.,12.0,0.,12.0,0.,12.0
1979-08-03 04:18:11.470 ,6,0,0.,12.0,0.,12.0,0.,12.0,0.,12.0
1979-08-03 04:18:23.470 ,7,0,0.,12.0,0.,12.0,0.,12.0,0.,12.0
1979-08-03 04:18:35.470 ,7,0,,0,,0,,0,,0
1979-08-03 04:18:47.470 ,7,0,,0,,0,,0,,0
1979-08-03 04:18:59.470 ,7,0,0.,12.0,0.,12.0,0.,12.0,0.,12.0
1979-08-03 04:19:11.470 ,4,1,,0,,0,,0,,0
1979-08-03 04:19:23.470 ,4,1,0.,12.0,0.,12.0,0.,12.0,0.,12.0
1979-08-03 04:19:35.470 ,0,1,0.,12.0,0.,12.0,0.,12.0,0.,12.0
1979-08-03 04:19:47.470 ,0,1,0.,12.0,0.,12.0,0.,12.0,0.,12.0
1979-08-03 04:19:59.470 ,3,1,1.,12.0,0.,12.0,0.,12.0,0.,12.0
1979-08-03 04:20:11.470 ,3,1,0.,12.0,0.,12.0,0.,12.0,0.,12.0
1979-08-03 04:20:23.470 ,7,1,0.,12.0,0.,12.0,0.,12.0,0.,12.0
1979-08-03 04:20:35.470 ,7,1,0.,12.0,0.,12.0,0.,12.0,0.,12.0
1979-08-03 04:20:47.470 ,4,1,,0,,0,,0,,0
1979-08-03 04:20:59.470 ,4,1,0.,12.0,0.,12.0,0.,12.0,0.,12.0
1979-08-03 04:21:11.470 ,0,1,,0,,0,,0,,0
1979-08-03 04:21:23.470 ,0,1,0.,12.0,0.,12.0,0.,12.0,0.,12.0
1979-08-03 04:21:35.470 ,3,1,0.,12.0,0.,12.0,0.,12.0,0.,12.0
1979-08-03 04:21:47.470 ,3,1,1.,12.0,0.,12.0,0.,12.0,0.,12.0